When you browse on this site, cookies collect data to enhance your experience and personalize the content and advertising you see.
Visit our Privacy Policy to learn more. By continuing to use the site, you agree to this use of cookies and data.
  • In Portugal
  • List of Countries
  • For 7 days
  • Water Temperature
  • Weather Map
  • Weather Widgets
  • user-avatar
    Login

    Hourly Weather Hudzhan

    Today, 2 April, Thursday

    Time Temperature Precipitation Wind Pressure Humidity
    00:00 +13°C° 0 mm 1 mps 723 mmHg 69%
    01:00 +13°C° 0 mm 1 mps 723 mmHg 70%
    02:00 +13°C° 0 mm 1 mps 723 mmHg 71%
    03:00 +13°C° 0.1 mm 1 mps 723 mmHg 72%
    04:00 +13°C° 0.1 mm 1 mps 724 mmHg 73%
    05:00 +12°C° 0 mm 1 mps 724 mmHg 77%
    06:00 +13°C° 0 mm 1 mps 724 mmHg 72%
    07:00 +14°C° 0 mm 1 mps 724 mmHg 67%
    08:00 +14°C° 0 mm 1 mps 724 mmHg 63%
    09:00 +15°C° 0 mm 1 mps 724 mmHg 57%
    10:00 +16°C° 0 mm 2 mps 724 mmHg 51%
    11:00 +18°C° 0 mm 2 mps 724 mmHg 45%
    12:00 +18°C° 0 mm 2 mps 723 mmHg 43%
    13:00 +19°C° 0 mm 2 mps 723 mmHg 40%
    14:00 +20°C° 0 mm 2 mps 722 mmHg 38%
    15:00 +20°C° 0 mm 2 mps 722 mmHg 36%
    16:00 +21°C° 0 mm 3 mps 722 mmHg 35%
    17:00 +21°C° 0 mm 3 mps 722 mmHg 34%
    18:00 +20°C° 0 mm 3 mps 722 mmHg 38%
    19:00 +18°C° 0 mm 2 mps 722 mmHg 43%
    20:00 +18°C° 0 mm 1 mps 722 mmHg 48%
    21:00 +17°C° 0 mm 2 mps 723 mmHg 49%
    22:00 +16°C° 0 mm 2 mps 723 mmHg 50%
    23:00 +16°C° 0 mm 2 mps 723 mmHg 51%

    Tomorrow, 3 April, Friday

    Time Temperature Precipitation Wind Pressure Humidity
    00:00 +16°C° 0 mm 3 mps 722 mmHg 48%
    01:00 +14°C° 0 mm 4 mps 722 mmHg 45%
    02:00 +14°C° 0 mm 5 mps 721 mmHg 42%
    03:00 +14°C° 0 mm 5 mps 721 mmHg 42%
    04:00 +14°C° 0 mm 5 mps 721 mmHg 43%
    05:00 +13°C° 0 mm 5 mps 722 mmHg 43%
    06:00 +14°C° 0 mm 5 mps 722 mmHg 42%
    07:00 +15°C° 0 mm 5 mps 721 mmHg 41%
    08:00 +16°C° 0 mm 6 mps 721 mmHg 40%
    09:00 +17°C° 0 mm 6 mps 722 mmHg 37%
    10:00 +20°C° 0 mm 7 mps 722 mmHg 34%
    11:00 +21°C° 0 mm 7 mps 722 mmHg 31%
    12:00 +22°C° 0 mm 7 mps 722 mmHg 30%
    13:00 +23°C° 0 mm 7 mps 722 mmHg 28%
    14:00 +24°C° 0 mm 7 mps 721 mmHg 27%
    15:00 +23°C° 0 mm 6 mps 721 mmHg 26%
    16:00 +23°C° 0 mm 5 mps 721 mmHg 26%
    17:00 +23°C° 0 mm 4 mps 721 mmHg 25%
    18:00 +22°C° 0 mm 4 mps 721 mmHg 28%
    19:00 +21°C° 0 mm 3 mps 722 mmHg 30%
    20:00 +19°C° 0 mm 3 mps 722 mmHg 33%
    21:00 +19°C° 0 mm 3 mps 722 mmHg 33%
    22:00 +19°C° 0 mm 3 mps 722 mmHg 32%
    23:00 +19°C° 0 mm 4 mps 722 mmHg 32%

    Day after tomorrow, 4 April, Saturday

    Time Temperature Precipitation Wind Pressure Humidity
    00:00 +18°C° 0 mm 4 mps 722 mmHg 32%
    01:00 +18°C° 0 mm 4 mps 721 mmHg 32%
    02:00 +18°C° 0 mm 4 mps 721 mmHg 32%
    03:00 +17°C° 0 mm 4 mps 721 mmHg 33%
    04:00 +17°C° 0 mm 4 mps 721 mmHg 34%
    05:00 +17°C° 0 mm 4 mps 720 mmHg 34%
    06:00 +17°C° 0 mm 5 mps 720 mmHg 34%
    07:00 +19°C° 0 mm 5 mps 721 mmHg 33%
    08:00 +20°C° 0 mm 5 mps 721 mmHg 33%
    09:00 +21°C° 0 mm 6 mps 721 mmHg 30%
    10:00 +22°C° 0 mm 6 mps 721 mmHg 27%
    11:00 +24°C° 0 mm 6 mps 721 mmHg 24%
    12:00 +24°C° 0 mm 6 mps 720 mmHg 23%
    13:00 +26°C° 0 mm 6 mps 720 mmHg 22%
    14:00 +27°C° 0 mm 6 mps 720 mmHg 22%
    15:00 +27°C° 0 mm 5 mps 719 mmHg 21%
    16:00 +27°C° 0 mm 4 mps 719 mmHg 21%
    17:00 +27°C° 0 mm 4 mps 719 mmHg 20%
    18:00 +25°C° 0 mm 3 mps 719 mmHg 26%
    19:00 +23°C° 0 mm 2 mps 719 mmHg 31%
    20:00 +22°C° 0 mm 1 mps 719 mmHg 36%
    21:00 +20°C° 0 mm 2 mps 719 mmHg 40%
    22:00 +20°C° 0 mm 3 mps 719 mmHg 43%
    23:00 +19°C° 0 mm 4 mps 719 mmHg 46%

    5 April, Sunday

    Time Temperature Precipitation Wind Pressure Humidity
    00:00 +18°C° 0 mm 3 mps 719 mmHg 52%
    01:00 +17°C° 0 mm 3 mps 719 mmHg 58%
    02:00 +16°C° 0 mm 3 mps 718 mmHg 65%
    03:00 +16°C° 0 mm 2 mps 719 mmHg 66%
    04:00 +15°C° 0 mm 2 mps 719 mmHg 68%
    05:00 +15°C° 0 mm 2 mps 719 mmHg 69%
    06:00 +16°C° 0 mm 2 mps 720 mmHg 66%
    07:00 +16°C° 0 mm 3 mps 720 mmHg 64%
    08:00 +17°C° 0 mm 3 mps 720 mmHg 61%
    09:00 +18°C° 0 mm 4 mps 721 mmHg 57%
    10:00 +19°C° 0 mm 5 mps 721 mmHg 54%
    11:00 +20°C° 0 mm 5 mps 721 mmHg 51%
    12:00 +20°C° 0 mm 5 mps 721 mmHg 50%
    13:00 +21°C° 0 mm 5 mps 721 mmHg 50%
    14:00 +21°C° 0 mm 5 mps 721 mmHg 49%
    15:00 +20°C° 0.1 mm 6 mps 721 mmHg 55%
    16:00 +19°C° 0.1 mm 6 mps 721 mmHg 62%
    17:00 +17°C° 0.1 mm 7 mps 721 mmHg 68%
    18:00 +16°C° 0.4 mm 5 mps 721 mmHg 71%
    19:00 +15°C° 0.4 mm 4 mps 721 mmHg 75%
    20:00 +16°C° 0.4 mm 2 mps 722 mmHg 78%
    21:00 +16°C° 0 mm 2 mps 722 mmHg 78%
    22:00 +16°C° 0 mm 2 mps 722 mmHg 78%
    23:00 +16°C° 0 mm 2 mps 722 mmHg 77%

    6 April, Monday

    Time Temperature Precipitation Wind Pressure Humidity
    00:00 +15°C° 0 mm 2 mps 722 mmHg 79%
    01:00 +15°C° 0 mm 2 mps 722 mmHg 82%
    02:00 +15°C° 0 mm 2 mps 721 mmHg 84%
    03:00 +15°C° 0 mm 1 mps 721 mmHg 84%
    04:00 +14°C° 0 mm 1 mps 721 mmHg 84%
    05:00 +14°C° 0 mm 1 mps 721 mmHg 84%
    06:00 +15°C° 0 mm 1 mps 722 mmHg 79%
    07:00 +16°C° 0 mm 1 mps 722 mmHg 75%
    08:00 +16°C° 0 mm 1 mps 722 mmHg 70%
    09:00 +18°C° 0 mm 1 mps 722 mmHg 66%
    10:00 +20°C° 0 mm 1 mps 722 mmHg 61%
    11:00 +21°C° 0 mm 1 mps 722 mmHg 57%
    12:00 +21°C° 0 mm 2 mps 722 mmHg 53%
    13:00 +23°C° 0 mm 2 mps 721 mmHg 49%
    14:00 +24°C° 0 mm 3 mps 721 mmHg 45%
    15:00 +24°C° 0 mm 3 mps 721 mmHg 45%
    16:00 +24°C° 0 mm 3 mps 721 mmHg 45%
    17:00 +24°C° 0 mm 3 mps 720 mmHg 45%
    18:00 +23°C° 0 mm 2 mps 721 mmHg 50%
    19:00 +21°C° 0 mm 2 mps 721 mmHg 54%
    20:00 +19°C° 0 mm 2 mps 721 mmHg 59%
    21:00 +20°C° 0 mm 1 mps 721 mmHg 61%
    22:00 +19°C° 0 mm 1 mps 721 mmHg 63%
    23:00 +18°C° 0 mm 1 mps 721 mmHg 66%

    7 April, Tuesday

    Time Temperature Precipitation Wind Pressure Humidity
    00:00 +16°C° 0 mm 0 mps 720 mmHg 67%
    01:00 +16°C° 0 mm 0 mps 720 mmHg 67%
    02:00 +15°C° 0 mm 0 mps 719 mmHg 68%
    03:00 +15°C° 0 mm 0 mps 719 mmHg 68%
    04:00 +15°C° 0 mm 0 mps 719 mmHg 67%
    05:00 +14°C° 0 mm 0 mps 719 mmHg 66%
    06:00 +16°C° 0 mm 0 mps 720 mmHg 61%
    07:00 +17°C° 0 mm 0 mps 720 mmHg 56%
    08:00 +19°C° 0 mm 0 mps 720 mmHg 51%
    09:00 +22°C° 0 mm 1 mps 720 mmHg 46%
    10:00 +24°C° 0 mm 2 mps 720 mmHg 42%
    11:00 +25°C° 0 mm 2 mps 720 mmHg 38%
    12:00 +26°C° 0 mm 2 mps 720 mmHg 35%
    13:00 +27°C° 0 mm 2 mps 719 mmHg 32%
    14:00 +28°C° 0 mm 2 mps 719 mmHg 29%
    15:00 +28°C° 0 mm 3 mps 719 mmHg 29%
    16:00 +28°C° 0 mm 3 mps 718 mmHg 29%
    17:00 +28°C° 0 mm 3 mps 718 mmHg 29%
    18:00 +26°C° 0 mm 4 mps 718 mmHg 36%
    19:00 +25°C° 0 mm 4 mps 718 mmHg 42%
    20:00 +22°C° 0 mm 4 mps 718 mmHg 49%
    21:00 +20°C° 0.3 mm 4 mps 719 mmHg 58%
    22:00 +19°C° 0.3 mm 4 mps 719 mmHg 66%
    23:00 +17°C° 0.3 mm 4 mps 720 mmHg 75%
    Show more